Regional Weather Roundup
Issued by NWS

Home | Current Version | Previous Version | Text Only | Print | Product List | Glossary On
Versions: 1 2 3 4 5 6 7 8 9 10 11 12 13 14 15 16 17 18 19 20 21 22 23 24 25 26 27 28 29 30 31 32 33 34 35 36 37 38 39 40 41 42 43 44 45 46 47 48 49 50
000
ASUS42 KKEY 211410
RWRKEY

FLORIDA REGIONAL WEATHER ROUNDUP FOR THE FLORIDA KEYS
NATIONAL WEATHER SERVICE KEY WEST FLORIDA
1000 AM EDT TUE OCT 21 2014

...SOUTH FLORIDA AND THE KEYS...

CITY           SKY/WX    TMP DP  RH WIND       PRES   REMARKS
FORT MYERS     CLOUDY    76  72  87 E3        29.96R
SW REGIONAL AP CLOUDY    75  71  87 CALM      29.97R
NAPLES         CLOUDY    77  71  82 E6        29.95S
MIAMI          CLOUDY    79  73  82 SE6       29.97R
WEST KENDALL   CLOUDY    80  74  81 CALM      29.97S
HOMESTEAD      LGT RAIN  78  74  87 S3        29.97R
MARATHON       CLOUDY    75  74  96 SE10G21   29.97R THUNDER
BOCA CHICA NAS CLOUDY    80  74  81 S3        29.95S
KEY WEST INTL  CLOUDY    82  76  81 S7        29.96R

...INTERNATIONAL WEATHER...

CITY           SKY/WX    TMP DP  RH WIND       PRES   REMARKS
NASSAU BAHAMAS PTSUNNY   82  72  69 VRB2      29.98S
CANCUN MEXICO  LGT RAIN  73  72  94 SE9       29.88R
COZUMEL MEXICO PTSUNNY   75  75 100 E5        29.85R

ADJACENT COASTAL WATERS...

STATION/POSITION TIME  SKY/WX   TEMP    WIND        PRES    WAVE
                                AIR SEA DIR/SP/G            HT/PER
                 (UTC)          (F)     (DEG/KT/KT) (MB)    (FT/S)
PULASKI SHOAL LI 1300            80     170/  5/  6 1014.1R
SAND KEY         1336            80     180/ 13/ 22 1014.3R
SOMBRERO KEY     1400            73      70/ 13/ 15 1015.6R
LONG KEY         1259            80 81  130/  9/ 12 1015.1R
MOLASSES REEF    1400            79 83  150/ 11/ 12 1014.8R
FOWEY ROCKS      1400            81 82  150/  9/ 10 1015.1R
Buoy 42080       NOT AVBL

$$


USA.gov is the U.S. government's official web portal to all federal, state and local government web resources and services.